Showing default

TELSTAR 2 (A-41), 573

Orbit data source: Space-Track

TELSTAR 2 (A-41), 573 is a payload satellite owned by AT&T (US) in HEO that was launched on Tue, 07 May 1963 UTC via a THOR DELTA B launch vehicle from the Air Force Eastern Test Range (AFETR). Payload-class satellites include a variety of spacecraft equipped with specific instruments for various scientific and technological missions. These include communications satellites like Starlink; space stations such as the ISS; scientific satellites like the Hubble; Earth observation satellites from companies like Planet Labs, Umbra, and HawkEye 360; GPS; miniature CubeSats for education and research; and military/defense satellites.

Loading next visibility...
Identifier
573, 1963-013A
Orbit
HEO
Country
Flag of USUS
Related business
Manufacturer
AT&T/BTL
Mission
Spacecraft
Bus & Motor
TSX, Unknown motor
Mass
79 kg wet, 79 kg dry
Launch date (UTC)
1963-05-07 (62 years ago)
Launch vehicle
THOR DELTA B
Launch site
Air Force Eastern Test Range (AFETR)
Object type
Payload
Rocket body
Debris
Shape & HBR
Unknown
Radar Cross Section
Medium (>0.1 m² and <1 m²)

Expand to show TLE details & history
Last TLE update: 2 days ago

TLE from 2 days ago
0 TELSTAR 2 (A-41)
1 00573U 63013A   25291.57450956 -.00000039  00000-0 -38778-3 0  9998
2 00573  42.7526 239.5315 4016253 216.8913 340.5910  6.39266788570696
Epoch: 2025-10-18T13:47Z
TLE epoch observation values (Epoch: 2025-10-18T13:47:17.625Z)
Latitude
6.49267°
Longitude
178.36213°
Altitude
1,681.54 km
Speed
8.15 km/s
True Right ascension
03h 29m 57s
True Declination
6° 27' 31"
Sunlit
Object was in full shadow at epoch
Visualization orbit readout
Latitude
Unknown
Longitude
Unknown
Altitude
Unknown
Speed
Unknown
Apparent Right ascension
Unknown
Apparent Declination
Unknown
Sunlit
N/A
Visualization observer readout
Local Sidereal Time
08:33:40
Azimuth
Unknown
Elevation
Unknown
Doppler factor
Unknown
Orbital elements
Apogee altitude
10,812.702 km
Perigee altitude
960.888 km
Semi-major axis
12,264.932 km
Eccentricity
0.40163
Inclination
42.7526°
RAAN
239.5315°
Arg. of periapsis
216.8913°
True anomaly
313.44909°
Mean anomaly
340.591°
Eccentric anomaly
328.60277°
Mean motion
1.59788 °/min
Orbital period
225.3 mins
BSTAR
-0.00038778
Loading maneuver chart data...
Computing Atmospheric mass density...
Loading historical data...
Loading historical data...
Loading historical data...
Loading historical data...
Loading historical data...
Loading historical data...
Loading historical data...
Other satellites on launch #13 in the year 1963 (1963-05-07 UTC)

Documentation

Showing up to 5 results
|